C/2016 C1 ( PanSTARRS )

Japanese version
Home page
Updated on January 17, 2017

---------------------------------------------------------------------

* Profile

Discovery Date February 12, 2016
Magnitude 19.9 mag
Discoverer Pan-STARRS 1 telescope (Haleakala)

* Pictures

* Orbital Elements

Epoch 2016 Feb. 22.0 TT = JDT 2457440.5
T 2016 Feb. 15.79656 TT                                 MPCW
q   8.4591104            (2000.0)            P               Q
z  -0.0005683      Peri.  328.53545     -0.86158738     -0.50695123
 +/-0.0000045      Node   181.78233     +0.41459077     -0.73216103
e   1.0048076      Incl.   56.17670     -0.29288510     +0.45490733
From 97 observations 2016 Feb. 12-June 5, mean residual 0".4.

* Magnitudes Graph

        m1 = 4.5 + 5 log d + 10.0 log r

---------------------------------------------------------------------

The orbital elements are published on M.P.E.C. 2016-M09.
The magnitudes graphs are made with Comet for Windows.

---------------------------------------------------------------------

Copyright(C) Seiichi Yoshida (comet@aerith.net). All rights reserved.